| time (UTC) | temp F | wind direction | speed MPH | gust MPH | rain 1hr in | rain 24hr in | rain mn in | humidity % | barometer mb |
| 20260504231547 | 50 | 97 | 0.0 | 0.0 | 0.00 | 1.42 | 0.00 | 96 | 1012.5 |
| 20260504230739 | 51 | 97 | 0.0 | 1.0 | 0.00 | 1.42 | 0.00 | 96 | 1012.6 |
| 20260504230240 | 51 | 97 | 0.0 | 1.0 | 0.00 | 1.42 | 0.00 | 96 | 1012.6 |
| 20260504225737 | 51 | 97 | 0.0 | 1.0 | 0.00 | 1.42 | 0.00 | 96 | 1012.7 |
| 20260504225238 | 51 | 97 | 0.0 | 1.0 | 0.00 | 1.42 | 0.00 | 96 | 1012.7 |
| 20260504224738 | 51 | 100 | 0.0 | 1.0 | 0.00 | 1.42 | 0.00 | 96 | 1012.7 |
| 20260504224239 | 51 | 96 | 0.0 | 1.0 | 0.00 | 1.42 | 0.00 | 97 | 1012.8 |
| 20260504223737 | 51 | 96 | 0.0 | 1.0 | 0.00 | 1.42 | 0.00 | 97 | 1012.8 |
| 20260504223240 | 51 | 96 | 0.0 | 0.0 | 0.00 | 1.42 | 0.00 | 97 | 1012.8 |
| 20260504223046 | 51 | 96 | 0.0 | 0.0 | 0.00 | 1.42 | 0.00 | 97 | 1012.8 |
| 20260504222545 | 52 | 97 | 0.0 | 0.0 | 0.00 | 1.42 | 0.00 | 97 | 1012.8 |
| 20260504221738 | 52 | 96 | 0.0 | 1.0 | 0.00 | 1.42 | 0.00 | 97 | 1012.9 |
| 20260504221332 | 52 | 96 | 0.0 | 1.0 | 0.00 | 1.42 | 0.00 | 97 | 1013.0 |
| 20260504220545 | 52 | 102 | 0.0 | 0.0 | 0.00 | 1.42 | 0.00 | 97 | 1013.0 |
| 20260504215737 | 52 | 103 | 0.0 | 1.0 | 0.00 | 1.42 | 1.42 | 97 | 1013.0 |
| 20260504215239 | 52 | 103 | 0.0 | 1.0 | 0.00 | 1.42 | 1.42 | 97 | 1013.0 |
| 20260504214738 | 52 | 103 | 0.0 | 0.0 | 0.00 | 1.42 | 1.42 | 96 | 1013.1 |
| 20260504214237 | 52 | 103 | 0.0 | 0.0 | 0.00 | 1.42 | 1.42 | 96 | 1013.1 |
| 20260504213736 | 52 | 103 | 0.0 | 0.0 | 0.00 | 1.42 | 1.42 | 97 | 1013.1 |
| 20260504213237 | 52 | 103 | 0.0 | 0.0 | 0.00 | 1.42 | 1.42 | 97 | 1013.1 |
| 20260504212735 | 52 | 131 | 0.0 | 1.0 | 0.00 | 1.42 | 1.42 | 97 | 1013.1 |
| 20260504212251 | 52 | 131 | 0.0 | 1.0 | 0.00 | 1.42 | 1.42 | 97 | 1013.2 |
| 20260504211736 | 52 | 131 | 0.0 | 0.0 | 0.00 | 1.42 | 1.42 | 97 | 1013.2 |
| 20260504211237 | 52 | 103 | 0.0 | 1.0 | 0.00 | 1.42 | 1.42 | 97 | 1013.2 |
| 20260504210738 | 52 | 56 | 0.0 | 1.0 | 0.00 | 1.42 | 1.42 | 97 | 1013.2 |
| 20260504210236 | 51 | 56 | 0.0 | 0.0 | 0.00 | 1.42 | 1.42 | 96 | 1013.1 |
| 20260504210044 | 52 | 56 | 0.0 | 0.0 | 0.00 | 1.42 | 1.42 | 96 | 1013.1 |
| 20260504205235 | 52 | 56 | 0.0 | 0.0 | 0.00 | 1.42 | 1.42 | 96 | 1013.0 |
| 20260504204900 | 52 | 56 | 0.0 | 0.0 | 0.00 | 1.42 | 1.42 | 96 | 1012.9 |
| 20260504204831 | 52 | 56 | 0.0 | 0.0 | 0.00 | 1.42 | 1.42 | 96 | 1013.0 |
| 20260504203738 | 52 | 79 | 0.0 | 1.0 | 0.00 | 1.42 | 1.42 | 96 | 1012.9 |
| 20260504203234 | 52 | 79 | 0.0 | 1.0 | 0.00 | 1.42 | 1.42 | 96 | 1012.9 |
| 20260504202752 | 52 | 80 | 0.0 | 1.0 | 0.00 | 1.42 | 1.42 | 96 | 1012.9 |
| 20260504202559 | 52 | 79 | 0.0 | 1.0 | 0.00 | 1.42 | 1.42 | 96 | 1012.9 |
| 20260504201739 | 52 | 79 | 0.0 | 1.0 | 0.00 | 1.43 | 1.42 | 96 | 1012.9 |
| 20260504201236 | 52 | 79 | 0.0 | 1.0 | 0.01 | 1.44 | 1.42 | 96 | 1012.9 |
| 20260504200734 | 52 | 79 | 0.0 | 1.0 | 0.01 | 1.45 | 1.42 | 96 | 1013.0 |
| 20260504200236 | 52 | 79 | 0.0 | 1.0 | 0.02 | 1.46 | 1.42 | 96 | 1013.0 |
| 20260504195736 | 52 | 79 | 0.0 | 1.0 | 0.02 | 1.46 | 1.42 | 96 | 1012.9 |
| 20260504195235 | 52 | 79 | 0.0 | 0.0 | 0.03 | 1.47 | 1.42 | 96 | 1012.8 |
| 20260504194734 | 52 | 79 | 0.0 | 0.0 | 0.03 | 1.47 | 1.42 | 96 | 1012.6 |
| 20260504194236 | 52 | 79 | 0.0 | 0.0 | 0.04 | 1.47 | 1.42 | 96 | 1012.7 |
| 20260504193736 | 52 | 259 | 0.0 | 1.0 | 0.05 | 1.47 | 1.42 | 96 | 1012.5 |
| 20260504193600 | 52 | 259 | 0.0 | 1.0 | 0.06 | 1.47 | 1.42 | 96 | 1012.4 |
| 20260504192734 | 52 | 259 | 0.0 | 0.0 | 0.06 | 1.47 | 1.42 | 96 | 1012.3 |
| 20260504192234 | 52 | 299 | 0.0 | 0.0 | 0.06 | 1.47 | 1.42 | 96 | 1012.1 |
| 20260504191738 | 52 | 299 | 0.0 | 0.0 | 0.07 | 1.47 | 1.42 | 96 | 1012.1 |
| 20260504191233 | 52 | 299 | 0.0 | 1.0 | 0.06 | 1.46 | 1.41 | 96 | 1012.0 |
| 20260504190740 | 52 | 299 | 0.0 | 1.0 | 0.06 | 1.47 | 1.41 | 96 | 1011.8 |
| 20260504190232 | 52 | 298 | 0.0 | 1.0 | 0.06 | 1.46 | 1.40 | 96 | 1011.8 |
| 20260504185734 | 52 | 298 | 0.0 | 1.0 | 0.06 | 1.46 | 1.39 | 96 | 1011.5 |
| 20260504185236 | 52 | 299 | 0.0 | 2.0 | 0.06 | 1.45 | 1.39 | 96 | 1011.3 |
| 20260504184732 | 52 | 299 | 1.0 | 2.0 | 0.08 | 1.45 | 1.39 | 96 | 1011.3 |
| 20260504184234 | 52 | 307 | 0.0 | 2.0 | 0.09 | 1.44 | 1.38 | 96 | 1011.2 |
| 20260504184040 | 52 | 288 | 0.0 | 2.0 | 0.11 | 1.43 | 1.37 | 96 | 1011.3 |
| 20260504183235 | 52 | 269 | 0.0 | 3.0 | 0.11 | 1.43 | 1.37 | 96 | 1011.5 |
| 20260504183046 | 52 | 290 | 0.0 | 3.0 | 0.13 | 1.43 | 1.36 | 95 | 1011.6 |
| 20260504182234 | 52 | 283 | 0.0 | 4.0 | 0.13 | 1.42 | 1.35 | 95 | 1011.8 |
| 20260504181732 | 52 | 341 | 1.0 | 4.0 | 0.14 | 1.41 | 1.35 | 95 | 1011.8 |
| 20260504181235 | 52 | 307 | 0.0 | 6.0 | 0.18 | 1.41 | 1.35 | 95 | 1011.9 |
| 20260504180733 | 52 | 268 | 2.0 | 6.0 | 0.25 | 1.41 | 1.35 | 95 | 1011.8 |
| 20260504180547 | 52 | 314 | 1.0 | 5.0 | 0.31 | 1.40 | 1.34 | 95 | 1011.8 |
| 20260504175732 | 52 | 309 | 0.0 | 4.0 | 0.41 | 1.39 | 1.33 | 95 | 1012.0 |
| 20260504175230 | 52 | 141 | 0.0 | 7.0 | 0.44 | 1.39 | 1.32 | 95 | 1011.9 |
| 20260504174738 | 53 | 309 | 2.0 | 12.0 | 0.39 | 1.32 | 1.27 | 94 | 1011.9 |
| 20260504174731 | 52 | 317 | 3.0 | 10.0 | 0.43 | 1.37 | 1.31 | 95 | 1011.8 |
| 20260504174719 | 53 | 314 | 2.0 | 10.0 | 0.41 | 1.35 | 1.29 | 94 | 1011.8 |
| 20260504173231 | 53 | 41 | 2.0 | 12.0 | 0.38 | 1.31 | 1.25 | 94 | 1011.6 |
| 20260504172735 | 53 | 49 | 2.0 | 10.0 | 0.36 | 1.30 | 1.24 | 94 | 1011.4 |
| 20260504172233 | 54 | 351 | 3.0 | 10.0 | 0.35 | 1.28 | 1.22 | 94 | 1011.4 |
| 20260504171730 | 55 | 348 | 2.0 | 5.0 | 0.33 | 1.27 | 1.20 | 94 | 1011.6 |
| 20260504171231 | 56 | 55 | 2.0 | 5.0 | 0.29 | 1.23 | 1.17 | 94 | 1011.6 |
| 20260504170730 | 56 | 86 | 0.0 | 5.0 | 0.22 | 1.16 | 1.09 | 95 | 1011.6 |
| 20260504170244 | 56 | 243 | 0.0 | 1.0 | 0.16 | 1.09 | 1.04 | 95 | 1011.3 |
| 20260504160230 | 57 | 288 | 0.0 | 3.0 | 0.02 | 0.94 | 0.87 | 95 | 1010.4 |
| 20260504150727 | 56 | 303 | 0.0 | 1.0 | 0.02 | 0.91 | 0.85 | 95 | 1010.3 |
| 20260504150226 | 56 | 303 | 0.0 | 4.0 | 0.04 | 0.91 | 0.85 | 94 | 1010.3 |
| 20260504141229 | 54 | 268 | 3.0 | 7.0 | 0.83 | 0.90 | 0.83 | 93 | 1009.8 |
| 20260504140725 | 54 | 336 | 1.0 | 7.0 | 0.83 | 0.89 | 0.83 | 92 | 1009.9 |
| 20260504140227 | 54 | 317 | 2.0 | 11.0 | 0.81 | 0.87 | 0.81 | 91 | 1009.6 |
| 20260504130725 | 67 | 0 | 0.0 | 3.0 | 0.00 | 0.06 | 0.00 | 71 | 1008.8 |
| 20260504130224 | 67 | 83 | 1.0 | 3.0 | 0.00 | 0.06 | 0.00 | 71 | 1008.9 |
| 20260504120224 | 70 | 266 | 1.0 | 2.0 | 0.00 | 0.06 | 0.00 | 66 | 1009.8 |
| 20260504110721 | 70 | 289 | 1.0 | 5.0 | 0.00 | 0.06 | 0.00 | 66 | 1010.5 |
| 20260504110528 | 69 | 123 | 2.0 | 5.0 | 0.00 | 0.06 | 0.00 | 67 | 1010.5 |
| 20260504100220 | 69 | 282 | 2.0 | 4.0 | 0.00 | 0.06 | 0.00 | 69 | 1011.1 |
| 20260504081218 | 61 | 90 | 1.0 | 4.0 | 0.00 | 0.06 | 0.00 | 92 | 1011.8 |
| 20260504080717 | 61 | 99 | 2.0 | 4.0 | 0.00 | 0.06 | 0.00 | 94 | 1011.9 |
| 20260504080217 | 60 | 87 | 1.0 | 3.0 | 0.00 | 0.06 | 0.00 | 96 | 1011.8 |
| 20260504070217 | 57 | 94 | 0.0 | 2.0 | 0.00 | 0.06 | 0.00 | 96 | 1011.8 |
| 20260504050724 | 56 | 99 | 0.0 | 0.0 | 0.00 | 0.06 | 0.00 | 94 | 1011.2 |
| 20260504050522 | 56 | 99 | 0.0 | 0.0 | 0.00 | 0.06 | 0.00 | 95 | 1011.2 |
| 20260504050018 | 56 | 99 | 0.0 | 0.0 | 0.00 | 0.06 | 0.00 | 95 | 1011.1 |
| 20260504045212 | 56 | 99 | 0.0 | 0.0 | 0.00 | 0.06 | 0.00 | 95 | 1011.1 |
| 20260504044714 | 56 | 99 | 0.0 | 0.0 | 0.00 | 0.06 | 0.00 | 95 | 1011.1 |
| 20260504044213 | 56 | 99 | 0.0 | 0.0 | 0.00 | 0.06 | 0.00 | 94 | 1011.2 |
| 20260504043712 | 56 | 99 | 0.0 | 0.0 | 0.00 | 0.06 | 0.00 | 94 | 1011.2 |
| 20260504043212 | 56 | 99 | 0.0 | 0.0 | 0.00 | 0.06 | 0.00 | 94 | 1011.2 |
| 20260504042709 | 56 | 99 | 0.0 | 1.0 | 0.00 | 0.06 | 0.00 | 94 | 1011.1 |
| 20260504042519 | 56 | 99 | 0.0 | 1.0 | 0.00 | 0.06 | 0.00 | 94 | 1010.9 |
| 20260504041711 | 56 | 99 | 0.0 | 0.0 | 0.00 | 0.06 | 0.00 | 94 | 1011.0 |
| 20260504041212 | 56 | 99 | 0.0 | 0.0 | 0.00 | 0.06 | 0.00 | 94 | 1011.1 |
| 20260504040711 | 56 | 99 | 0.0 | 1.0 | 0.00 | 0.06 | 0.00 | 94 | 1011.1 |
| 20260504040213 | 56 | 99 | 0.0 | 2.0 | 0.00 | 0.06 | 0.00 | 94 | 1010.8 |
| 20260504035712 | 56 | 99 | 1.0 | 2.0 | 0.00 | 0.06 | 0.00 | 94 | 1010.7 |
| 20260504035515 | 56 | 106 | 0.0 | 1.0 | 0.00 | 0.06 | 0.00 | 94 | 1010.8 |
| 20260504034711 | 56 | 113 | 0.0 | 0.0 | 0.00 | 0.06 | 0.00 | 94 | 1010.8 |
| 20260504034211 | 56 | 113 | 0.0 | 1.0 | 0.00 | 0.06 | 0.00 | 94 | 1010.9 |
| 20260504034018 | 56 | 113 | 0.0 | 1.0 | 0.00 | 0.06 | 0.00 | 94 | 1010.8 |
| 20260504033210 | 56 | 113 | 0.0 | 0.0 | 0.00 | 0.06 | 0.00 | 94 | 1010.8 |
| 20260504032711 | 56 | 113 | 0.0 | 0.0 | 0.00 | 0.06 | 0.00 | 94 | 1010.9 |
| 20260504032210 | 56 | 113 | 0.0 | 1.0 | 0.00 | 0.06 | 0.00 | 94 | 1010.9 |
| 20260504031713 | 56 | 113 | 0.0 | 1.0 | 0.00 | 0.06 | 0.00 | 94 | 1010.9 |
| 20260504031211 | 56 | 113 | 0.0 | 0.0 | 0.00 | 0.06 | 0.00 | 94 | 1010.8 |
| 20260504031021 | 56 | 113 | 0.0 | 0.0 | 0.00 | 0.06 | 0.00 | 94 | 1010.8 |
| 20260504030209 | 56 | 113 | 0.0 | 0.0 | 0.00 | 0.06 | 0.00 | 94 | 1010.9 |
| 20260504030036 | 56 | 113 | 0.0 | 0.0 | 0.00 | 0.06 | 0.00 | 94 | 1010.7 |
| 20260504025517 | 56 | 113 | 0.0 | 1.0 | 0.00 | 0.06 | 0.00 | 94 | 1010.6 |
| 20260504024709 | 56 | 113 | 0.0 | 1.0 | 0.00 | 0.06 | 0.00 | 94 | 1010.6 |
| 20260504024212 | 56 | 107 | 1.0 | 1.0 | 0.00 | 0.06 | 0.00 | 94 | 1010.5 |
| 20260504023709 | 56 | 120 | 0.0 | 2.0 | 0.00 | 0.06 | 0.00 | 94 | 1010.5 |
| 20260504023210 | 56 | 110 | 0.0 | 3.0 | 0.00 | 0.06 | 0.00 | 94 | 1010.5 |
| 20260504022709 | 56 | 100 | 1.0 | 3.0 | 0.00 | 0.06 | 0.00 | 94 | 1010.4 |
| 20260504022208 | 56 | 100 | 1.0 | 4.0 | 0.00 | 0.06 | 0.00 | 94 | 1010.4 |
| 20260504021710 | 56 | 85 | 2.0 | 4.0 | 0.00 | 0.06 | 0.00 | 94 | 1010.5 |
| 20260504021209 | 56 | 109 | 1.0 | 3.0 | 0.00 | 0.06 | 0.00 | 95 | 1010.5 |
| 20260504020709 | 56 | 116 | 2.0 | 3.0 | 0.00 | 0.06 | 0.00 | 95 | 1010.3 |
| 20260504020519 | 56 | 102 | 0.0 | 3.0 | 0.00 | 0.06 | 0.00 | 95 | 1010.3 |
| 20260504020016 | 56 | 116 | 0.0 | 3.0 | 0.00 | 0.06 | 0.00 | 95 | 1010.3 |
| 20260504015209 | 56 | 100 | 1.0 | 5.0 | 0.00 | 0.06 | 0.00 | 95 | 1010.2 |
| 20260504015021 | 56 | 90 | 1.0 | 5.0 | 0.00 | 0.06 | 0.00 | 95 | 1010.3 |
| 20260504014208 | 56 | 104 | 0.0 | 1.0 | 0.00 | 0.06 | 0.00 | 95 | 1010.2 |
| 20260504013709 | 56 | 103 | 1.0 | 1.0 | 0.00 | 0.06 | 0.00 | 95 | 1010.2 |
| 20260504013206 | 56 | 103 | 0.0 | 0.0 | 0.00 | 0.06 | 0.00 | 95 | 1010.3 |
| 20260504012707 | 56 | 103 | 0.0 | 0.0 | 0.00 | 0.06 | 0.00 | 95 | 1010.3 |
| 20260504012209 | 56 | 103 | 0.0 | 0.0 | 0.00 | 0.06 | 0.00 | 95 | 1010.3 |
| 20260504011708 | 56 | 103 | 0.0 | 0.0 | 0.00 | 0.06 | 0.00 | 95 | 1010.4 |
| 20260504011208 | 56 | 103 | 0.0 | 0.0 | 0.00 | 0.06 | 0.00 | 95 | 1010.4 |
| 20260504010707 | 56 | 103 | 0.0 | 0.0 | 0.00 | 0.06 | 0.00 | 95 | 1010.3 |
| 20260504010207 | 56 | 103 | 0.0 | 0.0 | 0.00 | 0.06 | 0.00 | 95 | 1010.4 |
| 20260504005706 | 56 | 103 | 0.0 | 0.0 | 0.00 | 0.06 | 0.00 | 95 | 1010.4 |
| 20260504005204 | 56 | 103 | 0.0 | 0.0 | 0.00 | 0.06 | 0.00 | 95 | 1010.6 |
| 20260504004708 | 56 | 103 | 0.0 | 0.0 | 0.00 | 0.06 | 0.00 | 95 | 1010.7 |
| 20260504004207 | 56 | 103 | 0.0 | 0.0 | 0.00 | 0.06 | 0.00 | 94 | 1010.8 |
| 20260504003708 | 56 | 103 | 0.0 | 1.0 | 0.00 | 0.06 | 0.00 | 94 | 1010.7 |
| 20260504003206 | 56 | 103 | 0.0 | 1.0 | 0.00 | 0.06 | 0.00 | 95 | 1010.5 |
| 20260504002709 | 56 | 103 | 0.0 | 1.0 | 0.00 | 0.06 | 0.00 | 94 | 1010.6 |
| 20260504002206 | 56 | 103 | 0.0 | 1.0 | 0.00 | 0.06 | 0.00 | 94 | 1010.6 |
| 20260504001706 | 56 | 103 | 0.0 | 1.0 | 0.00 | 0.06 | 0.00 | 94 | 1010.6 |
| 20260504001206 | 56 | 103 | 0.0 | 1.0 | 0.00 | 0.06 | 0.00 | 94 | 1010.4 |
| 20260504000707 | 56 | 103 | 0.0 | 1.0 | 0.00 | 0.06 | 0.00 | 94 | 1010.4 |
| 20260504000220 | 56 | 103 | 0.0 | 1.0 | 0.00 | 0.06 | 0.00 | 94 | 1010.5 |
| 20260503235705 | 56 | 106 | 1.0 | 1.0 | 0.00 | 0.06 | 0.00 | 94 | 1010.5 |
| 20260503235208 | 56 | 114 | 0.0 | 1.0 | 0.00 | 0.06 | 0.00 | 94 | 1010.8 |
| 20260503234706 | 56 | 114 | 0.0 | 1.0 | 0.00 | 0.06 | 0.00 | 94 | 1010.8 |
| 20260503234217 | 56 | 114 | 0.0 | 1.0 | 0.00 | 0.06 | 0.00 | 94 | 1010.8 |
| 20260503233706 | 56 | 114 | 0.0 | 1.0 | 0.00 | 0.06 | 0.00 | 94 | 1010.9 |
| 20260503233517 | 57 | 114 | 0.0 | 0.0 | 0.00 | 0.06 | 0.00 | 94 | 1010.7 |
| 20260503232704 | 57 | 114 | 0.0 | 1.0 | 0.00 | 0.06 | 0.00 | 94 | 1010.8 |
| 20260503232204 | 57 | 113 | 0.0 | 1.0 | 0.00 | 0.06 | 0.00 | 94 | 1010.9 |
| 20260503232012 | 57 | 114 | 0.0 | 1.0 | 0.00 | 0.06 | 0.00 | 94 | 1010.8 |